TimeCST,TemperatureF,Dew PointF,Humidity,Sea Level PressureIn,VisibilityMPH,Wind Direction,Wind SpeedMPH,Gust SpeedMPH,PrecipitationIn,Events,Conditions,WindDirDegrees,DateUTC
12:15 AM,55.4,41.0,58,30.14,10.0,Calm,Calm,-,N/A,,Clear,0,2013-01-21 06:15:00
12:35 AM,55.4,42.8,63,30.15,10.0,Calm,Calm,-,N/A,,Clear,0,2013-01-21 06:35:00
12:55 AM,53.6,42.8,67,30.15,10.0,Calm,Calm,-,N/A,,Clear,0,2013-01-21 06:55:00
1:15 AM,53.6,42.8,67,30.15,10.0,Calm,Calm,-,N/A,,Clear,0,2013-01-21 07:15:00
1:35 AM,53.6,42.8,67,30.16,10.0,Calm,Calm,-,N/A,,Clear,0,2013-01-21 07:35:00
1:55 AM,53.6,42.8,67,30.16,10.0,Calm,Calm,-,N/A,,Clear,0,2013-01-21 07:55:00
2:15 AM,53.6,44.6,72,30.16,10.0,Calm,Calm,-,N/A,,Clear,0,2013-01-21 08:15:00
2:35 AM,51.8,42.8,71,30.17,10.0,Calm,Calm,-,N/A,,Clear,0,2013-01-21 08:35:00
2:55 AM,51.8,42.8,71,30.16,10.0,Calm,Calm,-,N/A,,Clear,0,2013-01-21 08:55:00
3:15 AM,50.0,42.8,76,30.17,10.0,Calm,Calm,-,N/A,,Clear,0,2013-01-21 09:15:00
3:35 AM,50.0,42.8,76,30.16,10.0,Calm,Calm,-,N/A,,Clear,0,2013-01-21 09:35:00
3:55 AM,48.2,41.0,76,30.16,7.0,Calm,Calm,-,N/A,,Clear,0,2013-01-21 09:55:00
4:15 AM,46.4,41.0,81,30.17,10.0,Calm,Calm,-,0.01,,Clear,0,2013-01-21 10:15:00
4:35 AM,46.4,41.0,81,30.17,7.0,Calm,Calm,-,0.01,,Clear,0,2013-01-21 10:35:00
4:55 AM,44.6,37.4,76,30.17,10.0,Calm,Calm,-,0.01,,Clear,0,2013-01-21 10:55:00
5:15 AM,44.6,37.4,76,30.17,10.0,Calm,Calm,-,N/A,,Clear,0,2013-01-21 11:15:00
5:35 AM,46.4,39.2,76,30.17,10.0,Calm,Calm,-,N/A,,Clear,0,2013-01-21 11:35:00
5:55 AM,44.6,37.4,76,30.17,10.0,Calm,Calm,-,N/A,,Clear,0,2013-01-21 11:55:00
6:15 AM,46.4,39.2,76,30.18,7.0,Calm,Calm,-,N/A,,Clear,0,2013-01-21 12:15:00
6:35 AM,44.6,37.4,76,30.18,1.2,Calm,Calm,-,N/A,,Haze,0,2013-01-21 12:35:00
6:55 AM,44.6,37.4,76,30.18,0.2,Calm,Calm,-,N/A,,Haze,0,2013-01-21 12:55:00
7:15 AM,44.6,37.4,76,30.19,0.2,Calm,Calm,-,N/A,,Haze,0,2013-01-21 13:15:00
7:35 AM,44.6,37.4,76,30.19,0.2,Calm,Calm,-,N/A,,Haze,0,2013-01-21 13:35:00
7:55 AM,44.6,39.2,81,30.19,0.2,Calm,Calm,-,N/A,,Haze,0,2013-01-21 13:55:00
8:15 AM,46.4,41.0,81,30.19,0.2,Calm,Calm,-,N/A,,Haze,0,2013-01-21 14:15:00
8:35 AM,48.2,41.0,76,30.22,0.2,Calm,Calm,-,N/A,,Haze,0,2013-01-21 14:35:00
8:55 AM,50.0,42.8,76,30.22,1.5,Calm,Calm,-,N/A,,Haze,0,2013-01-21 14:55:00
9:15 AM,51.8,46.4,82,30.23,5.0,Calm,Calm,-,N/A,,Haze,0,2013-01-21 15:15:00
9:35 AM,53.6,46.4,77,30.23,10.0,Calm,Calm,-,N/A,,Clear,0,2013-01-21 15:35:00
9:55 AM,53.6,48.2,82,30.24,10.0,Calm,Calm,-,N/A,,Clear,0,2013-01-21 15:55:00
10:15 AM,57.2,44.6,63,30.25,10.0,Calm,Calm,-,N/A,,Clear,0,2013-01-21 16:15:00
10:35 AM,59.0,42.8,55,30.26,10.0,Calm,Calm,-,N/A,,Clear,0,2013-01-21 16:35:00
10:55 AM,60.8,41.0,48,30.26,10.0,Calm,Calm,-,N/A,,Clear,0,2013-01-21 16:55:00
11:15 AM,62.6,41.0,45,30.25,10.0,Calm,Calm,-,N/A,,Clear,0,2013-01-21 17:15:00
11:35 AM,62.6,41.0,45,30.25,10.0,Calm,Calm,-,N/A,,Clear,0,2013-01-21 17:35:00
11:55 AM,64.4,41.0,42,30.24,10.0,Calm,Calm,-,N/A,,Clear,0,2013-01-21 17:55:00
12:15 PM,68.0,39.2,35,30.22,10.0,Calm,Calm,-,N/A,,Clear,0,2013-01-21 18:15:00
12:35 PM,68.0,41.0,37,30.21,10.0,Calm,Calm,-,N/A,,Clear,0,2013-01-21 18:35:00
12:55 PM,69.8,39.2,33,30.21,10.0,Calm,Calm,-,N/A,,Clear,0,2013-01-21 18:55:00
1:15 PM,69.8,39.2,33,30.21,10.0,Calm,Calm,-,N/A,,Clear,0,2013-01-21 19:15:00
1:35 PM,69.8,39.2,33,30.20,10.0,Calm,Calm,-,N/A,,Clear,0,2013-01-21 19:35:00
1:55 PM,69.8,39.2,33,30.20,10.0,Calm,Calm,-,N/A,,Clear,0,2013-01-21 19:55:00
2:15 PM,69.8,37.4,31,30.20,10.0,Calm,Calm,-,N/A,,Clear,0,2013-01-21 20:15:00
2:35 PM,69.8,37.4,31,30.20,10.0,Calm,Calm,-,N/A,,Clear,0,2013-01-21 20:35:00
2:55 PM,69.8,37.4,31,30.19,10.0,Calm,Calm,-,N/A,,Clear,0,2013-01-21 20:55:00
3:15 PM,71.6,33.8,25,30.19,10.0,Calm,Calm,-,N/A,,Clear,0,2013-01-21 21:15:00
3:35 PM,71.6,33.8,25,30.19,10.0,NW,8.1,-,N/A,,Clear,320,2013-01-21 21:35:00
3:55 PM,71.6,33.8,25,30.19,10.0,Calm,Calm,-,N/A,,Clear,0,2013-01-21 21:55:00
4:15 PM,69.8,32.0,25,30.19,10.0,Calm,Calm,-,N/A,,Clear,0,2013-01-21 22:15:00
4:35 PM,69.8,32.0,25,30.19,10.0,Calm,Calm,-,N/A,,Clear,0,2013-01-21 22:35:00
5:15 PM,68.0,33.8,28,30.19,10.0,Calm,Calm,-,N/A,,Clear,0,2013-01-21 23:15:00
5:35 PM,64.4,35.6,34,30.19,10.0,Calm,Calm,-,N/A,,Clear,0,2013-01-21 23:35:00
5:55 PM,60.8,37.4,42,30.20,10.0,Calm,Calm,-,N/A,,Clear,0,2013-01-21 23:55:00
6:15 PM,60.8,37.4,42,30.20,10.0,Calm,Calm,-,N/A,,Clear,0,2013-01-22 00:15:00
6:55 PM,59.0,37.4,45,30.21,10.0,Calm,Calm,-,N/A,,Clear,0,2013-01-22 00:55:00
7:15 PM,53.6,37.4,54,30.21,10.0,Calm,Calm,-,N/A,,Clear,0,2013-01-22 01:15:00
7:35 PM,55.4,39.2,54,30.21,10.0,Calm,Calm,-,N/A,,Clear,0,2013-01-22 01:35:00
7:55 PM,55.4,39.2,54,30.22,10.0,Calm,Calm,-,N/A,,Clear,0,2013-01-22 01:55:00
8:15 PM,53.6,37.4,54,30.22,10.0,Calm,Calm,-,0.01,,Clear,0,2013-01-22 02:15:00
8:35 PM,50.0,37.4,62,30.22,10.0,Calm,Calm,-,0.01,,Clear,0,2013-01-22 02:35:00
8:55 PM,51.8,39.2,62,30.22,10.0,Calm,Calm,-,0.01,,Clear,0,2013-01-22 02:55:00
9:15 PM,51.8,39.2,62,30.22,10.0,Calm,Calm,-,N/A,,Clear,0,2013-01-22 03:15:00
9:35 PM,51.8,37.4,58,30.23,10.0,Calm,Calm,-,N/A,,Clear,0,2013-01-22 03:35:00
9:55 PM,51.8,37.4,58,30.22,10.0,Calm,Calm,-,N/A,,Clear,0,2013-01-22 03:55:00
10:15 PM,50.0,37.4,62,30.22,10.0,Calm,Calm,-,N/A,,Clear,0,2013-01-22 04:15:00
10:35 PM,51.8,37.4,58,30.22,10.0,Calm,Calm,-,N/A,,Clear,0,2013-01-22 04:35:00
10:55 PM,51.8,35.6,54,30.23,10.0,Calm,Calm,-,N/A,,Clear,0,2013-01-22 04:55:00
11:15 PM,51.8,35.6,54,30.23,10.0,Calm,Calm,-,N/A,,Clear,0,2013-01-22 05:15:00
11:35 PM,46.4,35.6,66,30.23,10.0,Calm,Calm,-,N/A,,Clear,0,2013-01-22 05:35:00
11:55 PM,46.4,35.6,66,30.23,10.0,Calm,Calm,-,N/A,,Clear,0,2013-01-22 05:55:00